Flag for Canada Weather past 2 weeks in Whitehorse, Yukon, Canada

Now
37 °F

Passing clouds.


Feels Like: 33 °F
Forecast: 35 / 44 °F
Wind: 6 mph from East

Location: Withehorse

Current Time: Apr 27, 2015 at 9:47:58 AM

Latest Report: Apr 27, 2015 at 9:00 AM


Visibility: 40 mi

Pressure: 29.80 "Hg

Humidity: 56%

Dew point: 23 °F

Location of WhitehorseLocation

Historic Weather in Whitehorse — Graph

°F

Whitehorse temperature yesterday

Maximum temperature yesterday: 54 °F (at 2:00 PM)
Minimum temperature yesterday: 30 °F (at 5:00 AM)
Average temperature yesterday: 41 °F

Past Weeks' High & Low Weather Summary

 TemperatureHumidityPressure
High55 °F (Apr 20, 2:00 PM)80% (Apr 12, 11:51 AM)30.29 "Hg (Apr 12, 11:51 AM)
Low21 °F (Apr 13, 5:00 AM)16% (Apr 22, 5:00 PM)29.48 "Hg (Apr 12, 8:00 AM)
Average37 °F48%29.87 "Hg
* Reported Apr 12 8:00 AM — Apr 27 8:00 AM, Whitehorse, Weather by CustomWeather, © 2015

Note: Actual official high and low records may vary slightly from our data, if they occured in-between our weather recording intervals... More about our weather records

Advertising

Whitehorse weather history for previous 24 hours

 ConditionsComfort  
Time TempWeatherWind HumidityBarometerVisibility
8:00 AM
Mon, Apr 27
36 °FPassing clouds.14 mph60%29.79 "Hg40 mi
7:00 AM34 °FPassing clouds.12 mph70%29.78 "Hg40 mi
6:00 AM34 °FPassing clouds.10 mph70%29.78 "Hg40 mi
5:00 AM36 °FPassing clouds.13 mph65%29.77 "Hg15 mi
4:00 AM36 °FPassing clouds.9 mph70%29.74 "Hg15 mi
3:00 AM37 °FPassing clouds.9 mph65%29.73 "Hg15 mi
2:00 AM37 °FMostly cloudy.10 mph70%29.72 "Hg15 mi
1:00 AM39 °FPassing clouds.12 mph65%29.70 "Hg15 mi
12:00 AM39 °FPartly cloudy.8 mph65%29.69 "Hg15 mi
11:00 PM
Sun, Apr 26
41 °FPartly cloudy.7 mph57%29.69 "Hg15 mi
10:00 PM43 °FBroken clouds.9 mph53%29.67 "Hg40 mi
9:00 PM46 °FBroken clouds.10 mph46%29.67 "Hg40 mi
8:00 PM48 °FPartly sunny.13 mph40%29.67 "Hg20 mi
7:00 PM48 °FScattered showers. Broken clouds.10 mph43%29.66 "Hg20 mi
6:00 PM48 °FScattered showers. Mostly cloudy.10 mph43%29.66 "Hg20 mi
5:00 PM48 °FSprinkles. Mostly cloudy.9 mph43%29.68 "Hg20 mi
4:00 PM50 °FScattered showers. Mostly cloudy.17 mph32%29.67 "Hg40 mi
3:00 PM52 °FMostly cloudy.12 mph30%29.67 "Hg40 mi
2:00 PM54 °FPartly sunny.15 mph28%29.68 "Hg40 mi
1:00 PM52 °FBroken clouds.14 mph30%29.70 "Hg40 mi
12:00 PM48 °FBroken clouds.6 mph40%29.71 "Hg40 mi
11:00 AM43 °FBroken clouds.2 mph42%29.75 "Hg40 mi
10:00 AM37 °FBroken clouds.3 mph48%29.77 "Hg40 mi
9:00 AM34 °FBroken clouds.No wind65%29.78 "Hg40 mi
Weather by CustomWeather, © 2015

See weather overviewHow to use our weather pages